IK0AOC Weather Reports


Display with metric or nautical units.
time (UTC)temp
F
wind
direction
speed
MPH
gust
MPH
rain 1hr
in
rain 24hr
in
rain mn
in
humidity
%
barometer
mb
20260507073505 66 99 5.0 12.0 0.00 0.05 0.02 70 1013.9
20260507073008 68 113 1.0 8.0 0.00 0.05 0.02 71 1013.8
20260507072505 67 188 1.0 5.0 0.00 0.05 0.02 71 1013.8
20260507070505 66 127 0.0 1.0 0.00 0.05 0.02 74 1014.0
20260507070011 65 139 0.0 7.0 0.00 0.05 0.02 78 1013.9
20260507065005 65 134 0.0 8.0 0.00 0.05 0.02 76 1013.9
20260507064504 65 202 0.0 3.0 0.00 0.05 0.02 76 1013.9
20260507064006 65 204 1.0 8.0 0.00 0.05 0.02 76 1013.9
20260507063008 64 94 0.0 0.0 0.00 0.05 0.02 79 1013.8
20260507062505 64 92 0.0 3.0 0.00 0.05 0.02 78 1013.7
20260507062004 64 63 0.0 0.0 0.00 0.05 0.02 80 1013.6
20260507061005 63 40 0.0 0.0 0.00 0.05 0.02 82 1013.6
20260507060505 62 40 0.0 0.0 0.00 0.05 0.02 83 1013.6
20260507060008 62 40 0.0 5.0 0.00 0.05 0.02 84 1013.6
20260507055506 61 43 0.0 6.0 0.00 0.05 0.02 85 1013.5
20260507053008 60 46 0.0 3.0 0.00 0.05 0.02 87 1013.4
20260507051505 59 40 0.0 0.0 0.00 0.06 0.02 89 1013.4
20260507050008 59 45 0.0 5.0 0.00 0.06 0.02 90 1013.3
20260507043505 58 52 1.0 7.0 0.00 0.06 0.02 90 1013.3
20260507042005 58 51 0.0 0.0 0.00 0.06 0.02 90 1013.3
20260507041005 58 28 9.0 15.0 0.00 0.06 0.02 90 1013.2
20260507040008 58 42 1.0 10.0 0.00 0.06 0.02 91 1013.2
20260507035004 58 49 3.0 7.0 0.00 0.06 0.02 91 1013.2
20260507033007 58 63 0.0 5.0 0.00 0.06 0.02 91 1013.3
20260507032004 58 42 0.0 5.0 0.00 0.06 0.02 91 1013.3
20260507030504 57 51 0.0 12.0 0.00 0.06 0.02 91 1013.3
20260507025505 57 28 8.0 18.0 0.00 0.06 0.02 91 1013.2
20260507024504 58 31 14.0 24.0 0.01 0.06 0.02 91 1013.2
20260507024005 58 37 9.0 18.0 0.01 0.06 0.02 91 1013.2
20260507023007 58 38 12.0 20.0 0.02 0.06 0.02 91 1013.2
20260507022006 58 39 6.0 18.0 0.02 0.06 0.02 91 1013.2
20260507021505 58 52 6.0 18.0 0.02 0.06 0.02 91 1013.2
20260507021006 58 42 9.0 16.0 0.02 0.06 0.02 91 1013.3
20260507015005 58 49 7.0 16.0 0.02 0.06 0.02 90 1013.3
20260507013505 58 36 0.0 10.0 0.02 0.06 0.02 90 1013.3
20260507013008 58 36 5.0 13.0 0.01 0.05 0.01 90 1013.3
20260507012506 58 35 5.0 12.0 0.01 0.05 0.01 90 1013.1
20260507010505 58 40 8.0 13.0 0.00 0.04 0.00 89 1013.1
20260507010008 58 43 5.0 12.0 0.00 0.04 0.00 89 1013.3
20260507005506 58 59 1.0 5.0 0.00 0.04 0.00 89 1013.3
20260507004006 58 59 0.0 0.0 0.00 0.04 0.00 89 1013.4
20260507003505 58 59 0.0 0.0 0.00 0.04 0.00 89 1013.4
20260507002005 58 71 1.0 3.0 0.00 0.04 0.00 90 1013.2
20260507001506 58 71 2.0 9.0 0.00 0.04 0.00 89 1013.3
20260507000505 58 104 3.0 17.0 0.00 0.04 0.00 90 1013.2
20260507000008 58 99 7.0 31.0 0.00 0.04 0.00 90 1013.2
20260506235506 59 67 2.0 15.0 0.00 0.04 0.00 90 1013.4
20260506234505 59 123 3.0 18.0 0.00 0.04 0.00 89 1013.5
20260506234005 59 163 2.0 21.0 0.00 0.04 0.00 89 1013.5
20260506233008 59 131 12.0 32.0 0.00 0.04 0.00 88 1013.5
20260506232005 60 136 10.0 28.0 0.00 0.04 0.00 88 1013.4
20260506230505 60 117 6.0 22.0 0.00 0.04 0.00 85 1013.4
20260506230008 60 140 12.0 26.0 0.00 0.04 0.00 84 1013.3
20260506225505 60 121 4.0 12.0 0.00 0.04 0.00 82 1013.3
20260506223504 61 136 4.0 15.0 0.00 0.04 0.00 81 1013.2
20260506223007 61 116 3.0 13.0 0.00 0.04 0.00 81 1013.2
20260506222505 61 127 3.0 8.0 0.00 0.04 0.00 82 1013.2
20260506222005 61 134 7.0 21.0 0.00 0.04 0.00 82 1013.2
20260506221006 61 171 1.0 8.0 0.00 0.04 0.00 83 1013.2
20260506220505 61 140 2.0 13.0 0.00 0.04 0.00 83 1013.2
20260506220008 61 123 3.0 16.0 0.00 0.04 0.00 84 1013.2
20260506215505 61 157 3.0 14.0 0.00 0.04 0.04 84 1013.2
20260506213504 61 151 1.0 16.0 0.01 0.04 0.04 84 1013.3
20260506213004 61 129 2.0 15.0 0.01 0.04 0.04 85 1013.3
20260506212005 60 145 3.0 14.0 0.02 0.04 0.04 85 1013.3
20260506211005 60 140 5.0 17.0 0.02 0.04 0.04 86 1013.3
20260506210505 61 155 6.0 22.0 0.02 0.04 0.04 86 1013.3
20260506210004 60 156 5.0 17.0 0.02 0.04 0.04 86 1013.4
20260506205005 61 142 3.0 12.0 0.02 0.04 0.04 85 1013.4
20260506203504 61 149 6.0 14.0 0.02 0.03 0.03 84 1013.5
20260506203005 61 167 3.0 14.0 0.02 0.03 0.03 84 1013.5
20260506200505 61 156 2.0 15.0 0.01 0.02 0.02 82 1013.4
20260506194005 63 178 4.0 13.0 0.00 0.02 0.02 77 1013.4
20260506193504 63 136 5.0 21.0 0.00 0.02 0.02 76 1013.3
20260506192504 63 150 7.0 20.0 0.00 0.02 0.02 74 1013.3
20260506192004 64 135 7.0 29.0 0.00 0.02 0.02 73 1013.3
20260506190008 64 156 7.0 18.0 0.00 0.02 0.02 71 1013.0
20260506185004 64 148 3.0 16.0 0.00 0.02 0.02 71 1012.8
20260506184005 64 129 6.0 17.0 0.00 0.02 0.02 71 1012.8
20260506182505 64 151 6.0 26.0 0.00 0.02 0.02 73 1012.7
20260506182005 64 145 5.0 17.0 0.00 0.02 0.02 74 1012.7
20260506181504 64 132 3.0 14.0 0.00 0.02 0.02 74 1012.7
20260506181005 64 168 0.0 20.0 0.00 0.02 0.02 75 1012.7
20260506180008 65 149 3.0 12.0 0.00 0.02 0.02 75 1012.8
20260506174504 65 158 2.0 14.0 0.00 0.02 0.02 75 1012.7
20260506174005 65 147 2.0 16.0 0.00 0.02 0.02 74 1012.7
20260506173504 65 170 10.0 22.0 0.00 0.02 0.02 74 1012.7
20260506173008 65 150 3.0 12.0 0.00 0.02 0.02 75 1012.7
20260506170505 64 166 10.0 26.0 0.00 0.02 0.02 76 1012.8
20260506170008 65 167 9.0 26.0 0.00 0.02 0.02 76 1012.8
20260506165506 64 165 9.0 26.0 0.00 0.02 0.02 76 1012.9
20260506165006 65 176 5.0 22.0 0.00 0.02 0.02 76 1012.9
20260506164505 65 178 4.0 23.0 0.00 0.02 0.02 76 1012.8
20260506163505 65 165 8.0 28.0 0.00 0.02 0.02 76 1013.0
20260506163009 65 184 9.0 26.0 0.00 0.02 0.02 75 1013.0
20260506162506 65 184 9.0 23.0 0.00 0.02 0.02 74 1012.9
20260506154505 65 148 13.0 23.0 0.00 0.02 0.02 72 1012.9
20260506153505 66 170 12.0 25.0 0.00 0.02 0.02 72 1013.1
20260506153008 66 170 11.0 26.0 0.00 0.02 0.02 71 1013.0
20260506152005 65 160 11.0 22.0 0.00 0.02 0.02 72 1012.9
20260506151505 65 148 5.0 15.0 0.00 0.02 0.02 73 1012.9
20260506145505 65 180 10.0 29.0 0.00 0.02 0.02 75 1013.1
20260506144505 66 176 18.0 48.0 0.00 0.02 0.02 72 1012.9
20260506144006 66 169 20.0 40.0 0.00 0.02 0.02 71 1012.9
20260506142505 66 136 10.0 46.0 0.00 0.02 0.02 73 1013.1
20260506142005 66 161 10.0 28.0 0.00 0.02 0.02 73 1013.0
20260506141006 66 166 17.0 37.0 0.00 0.02 0.02 72 1013.1
20260506140505 66 148 13.0 37.0 0.00 0.02 0.02 71 1013.1
20260506140008 67 143 18.0 40.0 0.00 0.02 0.02 71 1013.1
20260506135004 67 163 20.0 51.0 0.00 0.02 0.02 71 1013.1
20260506132505 67 197 17.0 40.0 0.00 0.02 0.02 70 1013.3
20260506132005 67 164 13.0 37.0 0.00 0.02 0.02 68 1013.3
20260506131504 67 129 17.0 49.0 0.00 0.02 0.02 69 1013.3
20260506130505 67 182 19.0 46.0 0.00 0.02 0.02 69 1013.4
20260506125005 68 175 5.0 35.0 0.00 0.02 0.02 67 1013.2
20260506124006 68 224 14.0 33.0 0.00 0.02 0.02 68 1013.3
20260506123505 68 188 6.0 33.0 0.00 0.02 0.02 67 1013.3
20260506123008 68 180 3.0 31.0 0.00 0.02 0.02 66 1013.3
20260506122506 68 170 14.0 35.0 0.00 0.02 0.02 65 1013.3
20260506121505 68 180 22.0 49.0 0.00 0.02 0.02 63 1013.3
20260506120008 69 191 10.0 45.0 0.00 0.02 0.02 61 1013.4
20260506115505 69 185 23.0 49.0 0.00 0.02 0.02 61 1013.3
20260506114505 69 180 18.0 58.0 0.00 0.02 0.02 62 1013.5
20260506114007 69 177 26.0 56.0 0.00 0.02 0.02 62 1013.3
20260506113505 69 203 24.0 53.0 0.00 0.02 0.02 62 1013.3
20260506113008 69 172 17.0 41.0 0.00 0.02 0.02 63 1013.3
20260506112505 69 167 24.0 43.0 0.00 0.02 0.02 62 1013.3
20260506105005 69 192 19.0 37.0 0.00 0.02 0.02 61 1013.5
20260506104504 69 189 30.0 53.0 0.00 0.02 0.02 58 1013.5
20260506104005 70 202 14.0 39.0 0.00 0.02 0.02 59 1013.5
20260506101005 69 164 22.0 53.0 0.00 0.02 0.02 52 1013.2
20260506100504 69 148 18.0 35.0 0.00 0.02 0.02 54 1013.2
20260506100008 70 164 9.0 37.0 0.00 0.02 0.02 57 1013.3
20260506095505 69 146 10.0 36.0 0.00 0.02 0.02 57 1013.4
20260506094504 68 164 16.0 43.0 0.00 0.02 0.02 58 1013.3
20260506094005 67 167 23.0 44.0 0.00 0.02 0.02 58 1013.3
20260506093007 67 157 23.0 46.0 0.00 0.02 0.02 62 1013.2
20260506092505 67 121 11.0 43.0 0.00 0.02 0.02 63 1013.2
20260506092005 67 134 12.0 41.0 0.00 0.02 0.02 65 1013.1
20260506091005 67 156 17.0 35.0 0.00 0.02 0.02 64 1013.1
20260506085004 65 127 17.0 43.0 0.00 0.02 0.02 68 1013.0
20260506084504 65 160 22.0 37.0 0.00 0.02 0.02 68 1013.0
20260506083504 65 159 8.0 32.0 0.00 0.02 0.02 70 1012.9
20260506083007 64 128 7.0 24.0 0.00 0.02 0.02 71 1012.9
20260506082004 64 104 6.0 28.0 0.00 0.02 0.02 72 1012.9
20260506081504 63 155 9.0 37.0 0.00 0.02 0.02 72 1012.9
20260506081006 63 128 6.0 37.0 0.00 0.02 0.02 72 1012.9
20260506080505 63 129 6.0 30.0 0.00 0.02 0.02 72 1012.8